Other Public Products
Issued by NWS Grand Forks, ND

Home | Current Version | Previous Version | Graphics & Text | Print | Product List | Glossary On
Versions: 1 2 3 4 5 6 7 8 9 10 11 12 13 14 15 16 17 18 19 20 21 22 23 24 25 26 27 28 29 30 31 32 33 34 35 36 37 38 39 40 41 42 43 44 45 46 47 48 49 50
000
FPUS83 KFGF 232310
OPUFGF
PRAIRIE TO PINES WEATHER ROUNDUP
NATIONAL WEATHER SERVICE EASTERN NORTH DAKOTA/GRAND FORKS ND
600 PM CDT MON OCT 23 2017

 **SATELLITE DATA USED TO AUGMENT SKY COVER AT AUTOMATED STATIONS**
 *****  WEATHER ACROSS EASTERN NORTH DAKOTA  *****

CITY           SKY/WX    TMP DP  RH WIND       PRES   REMARKS
GRAND FORKS    FAIR      46  31  55 N20G30    30.03R
GRAND FORKS AF FAIR      45  30  55 N18       30.03R
GRAND CITY NWS NOT AVBL
BUXTON         NOT AVBL
DEVILS LAKE    FAIR      47  29  49 NW22G30   30.09R
FARGO          CLOUDY    52  30  43 NW17      29.98R
WAHPETON ARPT  NOT AVBL
$$

 *****  WEATHER ACROSS CENTRAL AND WESTERN NORTH DAKOTA  *****

CITY           SKY/WX    TMP DP  RH WIND       PRES   REMARKS
JAMESTOWN      CLOUDY    48  35  60 NW26G37   30.07R
BISMARCK       CLOUDY    54  29  38 NW28G39   30.17R
MINOT          FAIR      50  31  48 NW24G35   30.18R
MINOT AFB      FAIR      49  31  50 N24G33    30.17R
GARRISON         N/A     50  31  48 NW35G43   30.19R
WILLISTON      LGT RAIN  54  27  35 NW25G36   30.30R
DICKINSON      FAIR      53  25  33 NW25G38   30.25R
HETTINGER      FAIR      51  24  34 NW24G35   30.28R
$$

 *****  OTHER OBSERVATIONS NORTHEAST NORTH DAKOTA  *****

CITY           SKY/WX    TMP DP  RH WIND       PRES   REMARKS
WALHALLA       FAIR     N/A N/A N/A N21       30.08R
LANGDON        FAIR      46  30  53 NW20      30.06R
CAVALIER       FAIR      43  30  61 N18G29    30.06R
GRAFTON        FAIR      43  28  56 N17G29    30.07R
CANDO          MOCLDY    46  28  49 NW21G33   30.12R
FORT TOTTEN      N/A     48  33  57 NW10      29.95S
ROLLA          FAIR      45  25  45 N20G30    30.12R
RUGBY          FAIR      46  30  53 NW20      30.12R
 ***** THE ABOVE OBSERVATIONS ARE NON NWS ARE NOT QUALITY
        CONTROLLED AND MAY MIS-REPORT RAIN FOR SNOW...
$$

 *****  OTHER OBSERVATIONS SOUTHEAST NORTH DAKOTA *****

CITY           SKY/WX    TMP DP  RH WIND       PRES   REMARKS
COOPERSTOWN    MOCLDY    48  30  49 NW22G28   30.05R
VALLEY CITY    CLOUDY    50  34  53 NW24G32   30.05R
OAKES          NOT AVBL
GWINNER        CLOUDY    46  41  81 NW26G36   30.03R HAZE
SHEYENNE NWR     N/A     53  34  49 N18       29.95S
BUFFALO        NOT AVBL
WYNDMERE       NOT AVBL
 ***** THE ABOVE OBSERVATIONS ARE NON NWS ARE NOT QUALITY
       CONTROLLED AND MAY MIS-REPORT RAIN FOR SNOW...
$$

  *****  WEATHER ACROSS NORTHERN MINNESOTA  *****

CITY           SKY/WX    TMP DP  RH WIND       PRES   REMARKS
FLAG ISLAND    MOCLDY    43  36  75 NW24      29.95R
WARROAD        CLOUDY    43  32  65 NW16      29.97R
ROSEAU         CLOUDY    43  30  61 NW14      29.98R
HALLOCK        FAIR      43  28  56 N22       30.05R
THF RVR FALLS  FAIR      41  28  60 NW18      30.00R
HALSTAD        NOT AVBL
FOSSTON        FAIR      45  28  53 NW16G22   29.97R
BAUDETTE       CLOUDY    43  34  70 NW23G32   29.92R
WASKISH        MOCLDY    45  30  57 NW15      29.92R
CROOKSTON      FAIR      45  28  53 N22G31    30.01R
$$
  *****  WEATHER ACROSS CENTRAL AND WEST MINNESOTA  *****

CITY           SKY/WX    TMP DP  RH WIND       PRES   REMARKS
BEMIDJI        FAIR      42  27  55 NW21      29.92R
PARK RAPIDS    FAIR      45  29  53 NW21G28   29.91R
WADENA         FAIR      46  30  53 NW12G23   29.92R
DETROIT LAKES  FAIR      46  32  57 N16G25    29.96R
MOORHEAD       CLOUDY    52  28  40 N15       29.99R
FERGUS FALLS   FAIR      50  32  50 NW18G25   29.96S
ELBOW LAKE     FAIR      50  32  49 W18G24    29.96R
MORRIS MN      FAIR      54  28  37 NW21G29   29.95R
STAPLES        FAIR      46  25  42 NW23      29.89S
WHEATON        FAIR      54  30  40 NW17G25   30.00R
$$
  *****  WEATHER ELSEWHERE ACROSS MINNESOTA  *****

CITY           SKY/WX    TMP DP  RH WIND       PRES   REMARKS
DULUTH         CLOUDY    46  44  93 NW17G28   29.75R
INTRNTL FALLS  CLOUDY    43  34  70 NW14      29.87R
ELY            CLOUDY    45  39  81 NW12G20   29.77R
CLOQUET        DRIZZLE   45  41  87 W15       29.78R
BRAINERD       CLOUDY    50  27  40 NW18G28   29.87R
HIBBING        LGT RAIN  41  38  89 NW21G30   29.81R
ALEXANDRIA     FAIR      50  31  48 NW18G26   29.93R
SAINT CLOUD    CLOUDY    48  28  46 NW13G20   29.87R
MINNEAPOLIS    CLOUDY    50  38  63 NW30G36   29.84R
$$

  *****  WEATHER ACROSS SOUTH DAKOTA  *****

CITY           SKY/WX    TMP DP  RH WIND       PRES   REMARKS
SIOUX FALLS    MOCLDY    54  31  41 NW25G35   30.03R
BROOKINGS      CLOUDY    51  33  50 NW21G28   30.02R
WATERTOWN      CLOUDY    50  35  56 NW22G30   30.02R
HURON          CLOUDY    54  31  41 NW21      30.08R
SISSETON         N/A     54  34  46 NW26G36   29.98R
ABERDEEN       CLOUDY    54  34  46 NW22      30.07R
MITCHELL       CLOUDY    55  31  39 NW18G28   30.10R
PIERRE         FAIR      57  27  31 NW26G45   30.16S
MOBRIDGE       CLOUDY    56  28  34 N28G36    30.13
RAPID CITY     FAIR      54  16  22 NW31G41   30.34R
$$

  *****  SOME WEATHER IN NEARBY STATES *****

CITY           SKY/WX    TMP DP  RH WIND       PRES   REMARKS
GLASGOW MT     FAIR      56  20  24 NW29G37   30.40R
GREAT FALLS MT FAIR      55  15  20 W17       30.53S
CHEYENNE WY    FAIR      51  16  24 N17G35    30.42R
SCOTTSBLUFF NE FAIR      57  16  20 NW25G40   30.39R
OMAHA NE       FAIR      57  32  38 NW26G43   30.03R
DES MOINES IA  MOCLDY    55  35  47 NW20      29.90R
DAVENPORT IA   CLOUDY    53  47  79 W10G20    29.78R
CHICAGO IL     CLOUDY    53  47  79 W7        29.67F
EAU CLAIRE WI  CLOUDY    55  39  54 W16G24    29.71R
LA CROSSE WI   CLOUDY    57  45  64 W6        29.71F
$$

  *****  SOME NATIONAL WEATHER *****

CITY           SKY/WX    TMP DP  RH WIND       PRES   REMARKS
LA GUARDIA NY  MOCLDY    71  62  73 SE13      30.10F
RALEIGH NC     MOCLDY    72  63  73 S16G22    29.85R
ATLANTA GA     FAIR      64  54  69 W10       29.89R
NEW ORLEANS LA FAIR      72  47  40 N9        30.00S
OKLAHOMA CITY  MOCLDY    69  38  32 N16       30.13R
ALBUQUERQUE NM FAIR      75  24  15 NW18      30.31F
SALT LAKE CITY PTSUNNY   64  33  31 N14       30.57S
LOS ANGELES CA FAIR      94  31  10 W10       29.99F
BOISE ID       FAIR      59  31  34 NW14      30.64F
SEATTLE WA     PTSUNNY   63  47  55 W3        30.62F
$$

*** WEATHER ACROSS MANITOBA...SASKATCHEWAN AND ONTARIO ***
                ***ONTARIO***

CITY           SKY/WX    TMP DP  RH WIND       PRES   REMARKS
GERALDTON      MOCLDY    48  39  71 SE2       29.74R
THUNDER BAY    MOCLDY    50  45  81 E8        29.68R
SIOUX LOOKOUT  LGT RAIN  39  37  93 NW14      29.82S
TORONTO        LGT RAIN  61  57  88 SE14G24   29.73F
BIG TROUT LK   MOCLDY    39  30  70 NW14      29.90R
PICKLE LAKE    LGT RAIN  45  36  70 N7        29.82R
DRYDEN         CLOUDY    39  36  87 NW7       29.86R
KENORA         MOCLDY    41  30  65 N15G22    29.93R
$$
                *** MANITOBA***

CITY           SKY/WX    TMP DP  RH WIND       PRES   REMARKS
BRANDON        CLEAR     46  25  42 NW21G28   30.13R
DAUPHIN        CLEAR     43  30  61 NE5       30.15R
ISLAND LAKE    MOCLDY    36  27  69 NW12G21   30.02R
PILOT MOUND      N/A     43  28  56 N12         N/A
THE PAS        PTCLDY    41  28  60 NW14      30.16R
THOMPSON       MOCLDY    34  27  75 NW13G22   30.07R WCI  25
WINNIPEG       MOCLDY    39  28  65 N16G22    30.08R
LYNN LAKE      CLOUDY    34  28  80 NW14G23   30.10R WCI  24
GILLAM         MOCLDY    30  23  74 NW20G28   30.01R WCI  18
$$
                ***SASKATCHEWAN***

CITY           SKY/WX    TMP DP  RH WIND       PRES   REMARKS
ESTEVAN        PTCLDY    50  27  40 NW24G38   30.25R
KINDERSLEY     PTCLDY    52  25  35 NW14G23   30.37R
LLOYDMINSTER   PTCLDY    50  28  43 W15G21    30.32R
PRINCE ALBERT  PTCLDY    46  32  57 N7        30.28R
REGINA         PTCLDY    50  30  46 NW23      30.28R
YORKTON        PTCLDY    45  32  61 NW13G18   30.21R
N. BATTLEFORD  CLEAR     50  30  46 NW18G24   30.33R


USA.gov is the U.S. government's official web portal to all federal, state and local government web resources and services.